Home   Weather   Biarritz   Past weeks

Flag for France Past Weather in Biarritz, Aquitaine, France — Yesterday and Last 2 Weeks

Now
46 °F

Passing clouds.


Feels Like: 44 °F
Forecast: 39 / 54 °F
Wind: 5 mph from Northeast

Location: Biarritz Airport

Current Time: Apr 27, 2017 at 1:41:30 am

Latest Report: Apr 27, 2017 at 1:00 am


Visibility: N/A

Pressure: 30.04 "Hg

Humidity: 57%

Dew Point: 32 °F

Location of BiarritzLocation

Past Weather in Biarritz — Graph

°F

Biarritz Temperature Yesterday

Maximum temperature yesterday: 54 °F (at 3:30 pm)
Minimum temperature yesterday: 45 °F (at 5:00 am)
Average temperature yesterday: 49 °F

High & Low Weather Summary for the Past Weeks

 TemperatureHumidityPressure
High75 °F (Apr 22, 2:30 pm)100% (Apr 12, 3:30 am)30.36 "Hg (Apr 12, 3:30 am)
Low39 °F (Apr 20, 6:30 am)18% (Apr 20, 5:30 pm)29.80 "Hg (Apr 25, 6:30 am)
Average55 °F68%30.14 "Hg
* Reported Apr 12 12:00 am — Apr 27 12:30 am, Biarritz, Weather by CustomWeather, © 2017

Note: Actual official high and low records may vary slightly from our data, if they occured in-between our weather recording intervals... More about our weather records

Advertising

Biarritz Weather History for the Previous 24 Hours

Scroll right to see more
 ConditionsComfort  
Time TempWeatherWind HumidityBarometerVisibility
12:30 am
Thu, Apr 27
48 °FPassing clouds.2 mph50%30.04 "HgN/A
11:30 pm
Wed, Apr 26
48 °FPassing clouds.3 mph50%30.07 "HgN/A
11:00 pm48 °FPassing clouds.3 mph50%30.07 "HgN/A
10:30 pm48 °FPassing clouds.3 mph54%30.07 "HgN/A
10:00 pm48 °FPartly cloudy.7 mph54%30.04 "HgN/A
9:30 pm48 °FPassing clouds.5 mph54%30.04 "HgN/A
8:30 pm50 °FBroken clouds.9 mph50%30.04 "HgN/A
8:00 pm50 °FMore clouds than sun.10 mph54%30.01 "HgN/A
7:30 pm50 °FPartly sunny.10 mph54%30.01 "HgN/A
7:00 pm52 °FPassing clouds.12 mph54%30.01 "HgN/A
6:30 pm52 °FPassing clouds.10 mph54%30.01 "HgN/A
6:00 pm54 °FPassing clouds.12 mph47%30.01 "HgN/A
5:30 pm54 °FPassing clouds.13 mph51%30.01 "HgN/A
5:00 pm54 °FPassing clouds.13 mph47%30.01 "HgN/A
4:30 pm54 °FPassing clouds.9 mph54%30.01 "HgN/A
4:00 pm52 °FPassing clouds.12 mph58%30.01 "HgN/A
3:30 pm54 °FPassing clouds.10 mph51%30.01 "HgN/A
3:00 pm52 °FPassing clouds.9 mph58%30.01 "HgN/A
2:30 pm52 °FBroken clouds.9 mph62%29.98 "HgN/A
2:00 pm50 °FBroken clouds.8 mph62%29.98 "HgN/A
1:30 pm52 °FBroken clouds.6 mph54%29.98 "HgN/A
1:00 pm50 °FPartly sunny.3 mph62%29.98 "HgN/A
12:30 pm50 °FScattered clouds.5 mph62%29.98 "HgN/A
11:30 am48 °FScattered clouds.7 mph76%29.98 "HgN/A
11:00 am48 °FScattered clouds.5 mph71%29.98 "HgN/A
10:30 am46 °FPartly sunny.3 mph76%29.98 "HgN/A
10:00 am46 °FOvercast.5 mph76%29.95 "HgN/A
9:30 am46 °FMostly cloudy.5 mph82%29.95 "HgN/A
9:00 am46 °FMostly cloudy.6 mph82%29.95 "HgN/A
8:30 am45 °FBroken clouds.3 mph87%29.95 "HgN/A
8:00 am45 °FBroken clouds.2 mph87%29.92 "HgN/A
7:30 am45 °FMore clouds than sun.2 mph87%29.92 "HgN/A
7:00 am45 °FMostly cloudy.No wind87%29.89 "HgN/A
6:30 am45 °FOvercast.3 mph93%29.89 "HgN/A
6:00 am45 °FLight rain. Overcast.5 mph93%29.89 "HgN/A
5:30 am45 °FLight rain. Partly cloudy.8 mph93%29.89 "Hg6 mi
5:00 am45 °FLight rain. Fog.12 mph93%29.86 "Hg3 mi
4:30 am46 °FLight rain. Fog.10 mph93%29.86 "Hg3 mi
4:00 am48 °FLight rain. Fog.12 mph94%29.86 "Hg3 mi
3:30 am48 °FLight rain. Fog.6 mph94%29.83 "Hg3 mi
3:00 am48 °FLight rain. Mostly cloudy.6 mph94%29.83 "Hg4 mi
2:30 am50 °FLight rain. Mostly cloudy.6 mph88%29.83 "Hg5 mi
2:00 am50 °FLight rain. Overcast.5 mph88%29.83 "HgN/A
1:30 am52 °FPassing clouds.3 mph82%29.83 "HgN/A
1:00 am52 °FMostly cloudy.3 mph82%29.83 "HgN/A
Weather by CustomWeather, © 2017

See weather overviewHow to use our weather pages